• In Österreich
  • Länderverzeichnis
  • Für 7 Tage
  • Wassertemperatur
  • Satellitenkarten
  • Wetterkarte
  • News
  • Widgets
  • user-avatar
    Anmelden

    Stündliche Wetter Borowec

    Heute, 22 Oktober, Montag

    Zeit Temperatur Niederschläge Wind Luftdruck Luftfeuchtigkeit
    00:00 +10°C° 0 mm 1 m/S 714 mmHg 91%
    01:00 +10°C° 0 mm 1 m/S 714 mmHg 92%
    02:00 +10°C° 0 mm 1 m/S 714 mmHg 94%
    03:00 +9°C° 0 mm 1 m/S 714 mmHg 94%
    04:00 +9°C° 0 mm 1 m/S 714 mmHg 94%
    05:00 +9°C° 0 mm 1 m/S 714 mmHg 94%
    06:00 +10°C° 0.1 mm 1 m/S 714 mmHg 93%
    07:00 +10°C° 0.1 mm 1 m/S 715 mmHg 91%
    08:00 +10°C° 0.1 mm 1 m/S 715 mmHg 90%
    09:00 +12°C° 0 mm 1 m/S 715 mmHg 83%
    10:00 +13°C° 0 mm 2 m/S 715 mmHg 76%
    11:00 +14°C° 0 mm 2 m/S 715 mmHg 69%
    12:00 +15°C° 0 mm 2 m/S 715 mmHg 66%
    13:00 +16°C° 0 mm 2 m/S 714 mmHg 62%
    14:00 +16°C° 0 mm 2 m/S 714 mmHg 59%
    15:00 +16°C° 0 mm 2 m/S 714 mmHg 61%
    16:00 +15°C° 0 mm 2 m/S 713 mmHg 63%
    17:00 +14°C° 0 mm 2 m/S 713 mmHg 65%
    18:00 +13°C° 0 mm 2 m/S 713 mmHg 71%
    19:00 +11°C° 0 mm 1 m/S 713 mmHg 77%
    20:00 +10°C° 0 mm 1 m/S 713 mmHg 83%
    21:00 +10°C° 0 mm 1 m/S 713 mmHg 84%
    22:00 +9°C° 0 mm 1 m/S 713 mmHg 85%
    23:00 +9°C° 0 mm 1 m/S 713 mmHg 85%

    Morgen, 23 Oktober, Dienstag

    Zeit Temperatur Niederschläge Wind Luftdruck Luftfeuchtigkeit
    00:00 +9°C° 0 mm 1 m/S 713 mmHg 86%
    01:00 +9°C° 0 mm 1 m/S 714 mmHg 87%
    02:00 +8°C° 0 mm 1 m/S 714 mmHg 87%
    03:00 +8°C° 0 mm 1 m/S 713 mmHg 88%
    04:00 +8°C° 0 mm 1 m/S 713 mmHg 88%
    05:00 +7°C° 0 mm 1 m/S 713 mmHg 89%
    06:00 +8°C° 0 mm 1 m/S 713 mmHg 86%
    07:00 +9°C° 0 mm 1 m/S 713 mmHg 82%
    08:00 +9°C° 0 mm 1 m/S 714 mmHg 79%
    09:00 +11°C° 0 mm 1 m/S 714 mmHg 69%
    10:00 +14°C° 0 mm 1 m/S 714 mmHg 60%
    11:00 +16°C° 0 mm 1 m/S 714 mmHg 50%
    12:00 +18°C° 0 mm 1 m/S 713 mmHg 47%
    13:00 +18°C° 0 mm 1 m/S 713 mmHg 43%
    14:00 +18°C° 0 mm 2 m/S 713 mmHg 39%
    15:00 +18°C° 0 mm 1 m/S 712 mmHg 43%
    16:00 +16°C° 0 mm 1 m/S 711 mmHg 46%
    17:00 +15°C° 0 mm 1 m/S 711 mmHg 49%
    18:00 +13°C° 0 mm 1 m/S 711 mmHg 55%
    19:00 +12°C° 0 mm 1 m/S 711 mmHg 61%
    20:00 +10°C° 0 mm 1 m/S 711 mmHg 67%
    21:00 +10°C° 0 mm 1 m/S 711 mmHg 71%
    22:00 +9°C° 0 mm 1 m/S 711 mmHg 74%
    23:00 +9°C° 0 mm 1 m/S 710 mmHg 78%

    übermorgen, 24 Oktober, Mittwoch

    Zeit Temperatur Niederschläge Wind Luftdruck Luftfeuchtigkeit
    00:00 +9°C° 0 mm 1 m/S 710 mmHg 81%
    01:00 +8°C° 0 mm 1 m/S 710 mmHg 83%
    02:00 +8°C° 0 mm 1 m/S 709 mmHg 86%
    03:00 +8°C° 0 mm 1 m/S 709 mmHg 87%
    04:00 +7°C° 0 mm 1 m/S 708 mmHg 88%
    05:00 +7°C° 0 mm 1 m/S 708 mmHg 89%
    06:00 +7°C° 0 mm 2 m/S 708 mmHg 85%
    07:00 +7°C° 0 mm 2 m/S 708 mmHg 81%
    08:00 +8°C° 0 mm 2 m/S 707 mmHg 76%
    09:00 +10°C° 0 mm 3 m/S 707 mmHg 66%
    10:00 +13°C° 0 mm 3 m/S 707 mmHg 56%
    11:00 +15°C° 0 mm 4 m/S 706 mmHg 46%
    12:00 +15°C° 0 mm 5 m/S 706 mmHg 45%
    13:00 +15°C° 0 mm 6 m/S 705 mmHg 45%
    14:00 +16°C° 0 mm 6 m/S 704 mmHg 45%
    15:00 +15°C° 0 mm 6 m/S 704 mmHg 47%
    16:00 +15°C° 0 mm 5 m/S 704 mmHg 49%
    17:00 +14°C° 0 mm 4 m/S 703 mmHg 50%
    18:00 +13°C° 0.7 mm 5 m/S 704 mmHg 59%
    19:00 +10°C° 0.7 mm 5 m/S 704 mmHg 68%
    20:00 +9°C° 0.7 mm 5 m/S 705 mmHg 77%
    21:00 +8°C° 0.2 mm 5 m/S 705 mmHg 77%
    22:00 +7°C° 0.2 mm 4 m/S 706 mmHg 76%
    23:00 +5°C° 0.2 mm 4 m/S 707 mmHg 76%

    25 Oktober, Donnerstag

    Zeit Temperatur Niederschläge Wind Luftdruck Luftfeuchtigkeit
    00:00 +4°C° 0 mm 4 m/S 707 mmHg 75%
    01:00 +4°C° 0 mm 4 m/S 707 mmHg 74%
    02:00 +3°C° 0 mm 4 m/S 707 mmHg 73%
    03:00 +2°C° 0 mm 3 m/S 708 mmHg 73%
    04:00 +1°C° 0 mm 3 m/S 708 mmHg 74%
    05:00 +1°C° 0 mm 3 m/S 708 mmHg 74%
    06:00 +1°C° 0 mm 3 m/S 709 mmHg 73%
    07:00 +1°C° 0 mm 3 m/S 709 mmHg 71%
    08:00 +2°C° 0 mm 3 m/S 709 mmHg 70%
    09:00 +4°C° 0 mm 3 m/S 710 mmHg 61%
    10:00 +5°C° 0 mm 4 m/S 710 mmHg 51%
    11:00 +7°C° 0 mm 4 m/S 710 mmHg 42%
    12:00 +8°C° 0 mm 5 m/S 710 mmHg 40%
    13:00 +9°C° 0 mm 5 m/S 710 mmHg 39%
    14:00 +10°C° 0 mm 5 m/S 709 mmHg 37%
    15:00 +11°C° 0 mm 4 m/S 709 mmHg 42%
    16:00 +10°C° 0 mm 3 m/S 709 mmHg 48%
    17:00 +10°C° 0 mm 2 m/S 709 mmHg 53%
    18:00 +9°C° 0 mm 2 m/S 709 mmHg 59%
    19:00 +8°C° 0 mm 2 m/S 709 mmHg 64%
    20:00 +7°C° 0 mm 2 m/S 710 mmHg 70%
    21:00 +7°C° 0 mm 2 m/S 710 mmHg 73%
    22:00 +7°C° 0 mm 2 m/S 710 mmHg 75%
    23:00 +7°C° 0 mm 2 m/S 710 mmHg 78%

    26 Oktober, Freitag

    Zeit Temperatur Niederschläge Wind Luftdruck Luftfeuchtigkeit
    00:00 +7°C° 0 mm 2 m/S 710 mmHg 79%
    01:00 +8°C° 0 mm 2 m/S 710 mmHg 79%
    02:00 +8°C° 0 mm 2 m/S 710 mmHg 79%
    03:00 +7°C° 0 mm 2 m/S 710 mmHg 80%
    04:00 +7°C° 0 mm 2 m/S 710 mmHg 82%
    05:00 +7°C° 0 mm 2 m/S 710 mmHg 83%
    06:00 +7°C° 0 mm 2 m/S 710 mmHg 79%
    07:00 +8°C° 0 mm 2 m/S 710 mmHg 75%
    08:00 +9°C° 0 mm 1 m/S 711 mmHg 71%
    09:00 +12°C° 0 mm 2 m/S 711 mmHg 62%
    10:00 +15°C° 0 mm 2 m/S 711 mmHg 52%
    11:00 +17°C° 0 mm 2 m/S 712 mmHg 42%
    12:00 +18°C° 0 mm 2 m/S 711 mmHg 38%
    13:00 +19°C° 0 mm 2 m/S 711 mmHg 35%
    14:00 +20°C° 0 mm 2 m/S 711 mmHg 31%
    15:00 +19°C° 0 mm 2 m/S 711 mmHg 35%
    16:00 +19°C° 0 mm 1 m/S 710 mmHg 38%
    17:00 +16°C° 0 mm 1 m/S 710 mmHg 41%
    18:00 +15°C° 0 mm 1 m/S 710 mmHg 43%
    19:00 +14°C° 0 mm 1 m/S 710 mmHg 45%
    20:00 +12°C° 0 mm 1 m/S 710 mmHg 47%
    21:00 +12°C° 0 mm 2 m/S 711 mmHg 48%
    22:00 +12°C° 0 mm 2 m/S 711 mmHg 48%
    23:00 +10°C° 0 mm 2 m/S 711 mmHg 49%

    27 Oktober, Samstag

    Zeit Temperatur Niederschläge Wind Luftdruck Luftfeuchtigkeit
    00:00 +10°C° 0 mm 2 m/S 711 mmHg 51%
    01:00 +10°C° 0 mm 2 m/S 711 mmHg 52%
    02:00 +10°C° 0 mm 2 m/S 711 mmHg 54%
    03:00 +9°C° 0 mm 2 m/S 711 mmHg 56%
    04:00 +9°C° 0 mm 2 m/S 711 mmHg 58%
    05:00 +9°C° 0 mm 2 m/S 711 mmHg 60%
    06:00 +10°C° 0 mm 2 m/S 711 mmHg 60%
    07:00 +10°C° 0 mm 2 m/S 711 mmHg 60%
    08:00 +10°C° 0 mm 2 m/S 711 mmHg 59%
    09:00 +14°C° 0 mm 2 m/S 711 mmHg 52%
    10:00 +17°C° 0 mm 2 m/S 712 mmHg 45%
    11:00 +20°C° 0 mm 3 m/S 712 mmHg 37%
    12:00 +21°C° 0 mm 3 m/S 711 mmHg 35%
    13:00 +22°C° 0 mm 3 m/S 711 mmHg 32%
    14:00 +24°C° 0 mm 3 m/S 710 mmHg 29%
    15:00 +22°C° 0 mm 3 m/S 710 mmHg 34%
    16:00 +20°C° 0 mm 3 m/S 709 mmHg 38%
    17:00 +19°C° 0 mm 2 m/S 709 mmHg 43%
    18:00 +17°C° 0 mm 2 m/S 709 mmHg 49%
    19:00 +16°C° 0 mm 2 m/S 709 mmHg 54%
    20:00 +14°C° 0 mm 2 m/S 709 mmHg 60%
    21:00 +14°C° 0 mm 2 m/S 709 mmHg 64%
    22:00 +13°C° 0 mm 2 m/S 709 mmHg 67%
    23:00 +13°C° 0 mm 2 m/S 709 mmHg 71%

    28 Oktober, Sonntag

    Zeit Temperatur Niederschläge Wind Luftdruck Luftfeuchtigkeit
    00:00 +13°C° 0 mm 2 m/S 709 mmHg 73%
    01:00 +13°C° 0 mm 2 m/S 709 mmHg 75%
    02:00 +13°C° 0 mm 2 m/S 709 mmHg 78%
    03:00 +12°C° 0 mm 2 m/S 709 mmHg 78%
    04:00 +12°C° 0 mm 2 m/S 709 mmHg 79%
    05:00 +12°C° 0 mm 2 m/S 709 mmHg 80%
    06:00 +12°C° 0 mm 2 m/S 709 mmHg 78%
    07:00 +13°C° 0 mm 2 m/S 710 mmHg 75%
    08:00 +13°C° 0 mm 2 m/S 710 mmHg 73%
    09:00 +16°C° 0 mm 2 m/S 710 mmHg 63%
    10:00 +18°C° 0 mm 3 m/S 711 mmHg 52%
    11:00 +21°C° 0 mm 3 m/S 711 mmHg 42%
    12:00 +21°C° 0 mm 4 m/S 711 mmHg 38%
    13:00 +22°C° 0 mm 4 m/S 710 mmHg 35%
    14:00 +23°C° 0 mm 4 m/S 710 mmHg 31%
    15:00 +22°C° 0 mm 3 m/S 710 mmHg 36%
    16:00 +20°C° 0 mm 3 m/S 710 mmHg 41%
    17:00 +19°C° 0 mm 2 m/S 710 mmHg 46%
    18:00 +18°C° 0 mm 2 m/S 710 mmHg 51%
    19:00 +17°C° 0 mm 2 m/S 710 mmHg 55%
    20:00 +15°C° 0 mm 2 m/S 710 mmHg 60%
    21:00 +15°C° 0 mm 2 m/S 710 mmHg 63%
    22:00 +15°C° 0 mm 2 m/S 710 mmHg 65%
    23:00 +14°C° 0 mm 2 m/S 710 mmHg 68%
    Mehr zeigen